When you browse on this site, cookies collect data to enhance your experience and personalize the content and advertising you see.
Visit our Privacy Policy to learn more. By continuing to use the site, you agree to this use of cookies and data.
  • In Hungary
  • List of Countries
  • For 7 days
  • Water Temperature
  • Satellite Maps
  • Weather Map
  • News
  • Weather Widgets
  • user-avatar
    Login

    Hourly Weather Mahdia

    Today, 16 January, Wednesday

    Time Temperature Precipitation Wind Pressure Humidity
    00:00 +13°C° 0 mm 4 mps 767 mmHg 70%
    01:00 +12°C° 0 mm 3 mps 767 mmHg 73%
    02:00 +12°C° 0 mm 3 mps 767 mmHg 75%
    03:00 +12°C° 0 mm 2 mps 767 mmHg 77%
    04:00 +12°C° 0 mm 2 mps 767 mmHg 78%
    05:00 +11°C° 0 mm 1 mps 767 mmHg 79%
    06:00 +11°C° 0 mm 1 mps 767 mmHg 80%
    07:00 +11°C° 0 mm 1 mps 767 mmHg 81%
    08:00 +12°C° 0 mm 1 mps 768 mmHg 74%
    09:00 +14°C° 0 mm 1 mps 768 mmHg 67%
    10:00 +15°C° 0 mm 2 mps 768 mmHg 59%
    11:00 +16°C° 0 mm 2 mps 767 mmHg 57%
    12:00 +17°C° 0 mm 3 mps 767 mmHg 54%
    13:00 +17°C° 0 mm 3 mps 767 mmHg 51%
    14:00 +17°C° 0 mm 3 mps 767 mmHg 51%
    15:00 +17°C° 0 mm 4 mps 766 mmHg 52%
    16:00 +16°C° 0 mm 5 mps 766 mmHg 52%
    17:00 +15°C° 0 mm 4 mps 766 mmHg 55%
    18:00 +14°C° 0 mm 4 mps 766 mmHg 58%
    19:00 +14°C° 0 mm 4 mps 766 mmHg 60%
    20:00 +13°C° 0 mm 4 mps 766 mmHg 60%
    21:00 +13°C° 0 mm 4 mps 766 mmHg 60%
    22:00 +13°C° 0 mm 4 mps 767 mmHg 60%
    23:00 +13°C° 0 mm 4 mps 766 mmHg 62%

    Tomorrow, 17 January, Thursday

    Time Temperature Precipitation Wind Pressure Humidity
    00:00 +13°C° 0 mm 4 mps 766 mmHg 63%
    01:00 +13°C° 0 mm 4 mps 766 mmHg 65%
    02:00 +13°C° 0 mm 4 mps 766 mmHg 66%
    03:00 +12°C° 0 mm 4 mps 765 mmHg 68%
    04:00 +12°C° 0 mm 4 mps 765 mmHg 70%
    05:00 +12°C° 0 mm 4 mps 765 mmHg 72%
    06:00 +12°C° 0 mm 3 mps 765 mmHg 74%
    07:00 +11°C° 0 mm 3 mps 764 mmHg 76%
    08:00 +13°C° 0 mm 3 mps 764 mmHg 69%
    09:00 +14°C° 0 mm 3 mps 764 mmHg 63%
    10:00 +17°C° 0 mm 4 mps 764 mmHg 56%
    11:00 +17°C° 0 mm 4 mps 764 mmHg 53%
    12:00 +18°C° 0 mm 4 mps 763 mmHg 51%
    13:00 +17°C° 0 mm 5 mps 763 mmHg 48%
    14:00 +18°C° 0 mm 4 mps 763 mmHg 49%
    15:00 +18°C° 0 mm 4 mps 762 mmHg 49%
    16:00 +18°C° 0 mm 4 mps 762 mmHg 50%
    17:00 +17°C° 0 mm 4 mps 762 mmHg 55%
    18:00 +15°C° 0 mm 4 mps 762 mmHg 61%
    19:00 +14°C° 0 mm 4 mps 763 mmHg 66%
    20:00 +14°C° 0 mm 4 mps 763 mmHg 67%
    21:00 +13°C° 0 mm 4 mps 763 mmHg 69%
    22:00 +13°C° 0 mm 3 mps 763 mmHg 70%
    23:00 +13°C° 0 mm 3 mps 763 mmHg 71%

    Day after tomorrow, 18 January, Friday

    Time Temperature Precipitation Wind Pressure Humidity
    00:00 +13°C° 0 mm 2 mps 763 mmHg 72%
    01:00 +13°C° 0 mm 2 mps 763 mmHg 74%
    02:00 +12°C° 0 mm 2 mps 762 mmHg 75%
    03:00 +12°C° 0 mm 2 mps 762 mmHg 76%
    04:00 +12°C° 0 mm 1 mps 762 mmHg 77%
    05:00 +10°C° 0 mm 2 mps 762 mmHg 77%
    06:00 +10°C° 0 mm 2 mps 762 mmHg 77%
    07:00 +10°C° 0 mm 2 mps 762 mmHg 77%
    08:00 +13°C° 0 mm 2 mps 763 mmHg 71%
    09:00 +14°C° 0 mm 2 mps 763 mmHg 64%
    10:00 +16°C° 0 mm 2 mps 763 mmHg 58%
    11:00 +16°C° 0 mm 2 mps 763 mmHg 56%
    12:00 +17°C° 0 mm 2 mps 763 mmHg 55%
    13:00 +17°C° 0 mm 3 mps 762 mmHg 53%
    14:00 +17°C° 0 mm 3 mps 762 mmHg 54%
    15:00 +17°C° 0 mm 3 mps 762 mmHg 56%
    16:00 +17°C° 0 mm 3 mps 762 mmHg 58%
    17:00 +16°C° 0 mm 3 mps 762 mmHg 63%
    18:00 +15°C° 0 mm 2 mps 762 mmHg 68%
    19:00 +15°C° 0 mm 2 mps 763 mmHg 73%
    20:00 +14°C° 0 mm 2 mps 763 mmHg 75%
    21:00 +14°C° 0 mm 1 mps 763 mmHg 77%
    22:00 +13°C° 0 mm 1 mps 763 mmHg 79%
    23:00 +13°C° 0 mm 1 mps 763 mmHg 80%

    19 January, Saturday

    Time Temperature Precipitation Wind Pressure Humidity
    00:00 +11°C° 0 mm 0 mps 763 mmHg 82%
    01:00 +11°C° 0 mm 0 mps 763 mmHg 83%
    02:00 +12°C° 0 mm 1 mps 763 mmHg 84%
    03:00 +12°C° 0 mm 1 mps 762 mmHg 84%
    04:00 +11°C° 0 mm 1 mps 762 mmHg 85%
    05:00 +11°C° 0 mm 1 mps 762 mmHg 85%
    06:00 +11°C° 0 mm 1 mps 762 mmHg 85%
    07:00 +10°C° 0 mm 1 mps 762 mmHg 85%
    08:00 +12°C° 0 mm 1 mps 763 mmHg 78%
    09:00 +14°C° 0 mm 1 mps 763 mmHg 70%
    10:00 +15°C° 0 mm 1 mps 763 mmHg 63%
    11:00 +16°C° 0 mm 1 mps 763 mmHg 58%
    12:00 +18°C° 0 mm 1 mps 762 mmHg 52%
    13:00 +18°C° 0 mm 1 mps 762 mmHg 47%
    14:00 +18°C° 0 mm 1 mps 762 mmHg 46%
    15:00 +17°C° 0 mm 2 mps 762 mmHg 46%
    16:00 +17°C° 0 mm 2 mps 761 mmHg 45%
    17:00 +16°C° 0.1 mm 2 mps 762 mmHg 51%
    18:00 +16°C° 0.1 mm 2 mps 762 mmHg 56%
    19:00 +15°C° 0.1 mm 2 mps 762 mmHg 61%
    20:00 +14°C° 0.2 mm 2 mps 763 mmHg 59%
    21:00 +14°C° 0.2 mm 2 mps 763 mmHg 57%
    22:00 +14°C° 0.2 mm 2 mps 763 mmHg 56%
    23:00 +13°C° 0 mm 3 mps 763 mmHg 53%

    20 January, Sunday

    Time Temperature Precipitation Wind Pressure Humidity
    00:00 +12°C° 0 mm 3 mps 763 mmHg 50%
    01:00 +12°C° 0 mm 3 mps 763 mmHg 47%
    02:00 +12°C° 0 mm 3 mps 763 mmHg 47%
    03:00 +11°C° 0 mm 3 mps 762 mmHg 48%
    04:00 +11°C° 0 mm 3 mps 762 mmHg 48%
    05:00 +11°C° 0 mm 3 mps 762 mmHg 51%
    06:00 +11°C° 0 mm 3 mps 762 mmHg 54%
    07:00 +10°C° 0 mm 3 mps 762 mmHg 57%
    08:00 +11°C° 0 mm 4 mps 762 mmHg 54%
    09:00 +12°C° 0 mm 4 mps 763 mmHg 52%
    10:00 +13°C° 0 mm 4 mps 763 mmHg 49%
    11:00 +15°C° 0 mm 4 mps 762 mmHg 44%
    12:00 +17°C° 0 mm 4 mps 762 mmHg 39%
    13:00 +18°C° 0 mm 4 mps 761 mmHg 35%
    14:00 +17°C° 0 mm 5 mps 761 mmHg 36%
    15:00 +17°C° 0 mm 5 mps 760 mmHg 36%
    16:00 +19°C° 0 mm 6 mps 760 mmHg 37%
    17:00 +17°C° 0 mm 6 mps 760 mmHg 40%
    18:00 +16°C° 0 mm 7 mps 760 mmHg 42%
    19:00 +15°C° 0 mm 7 mps 760 mmHg 45%
    20:00 +15°C° 0 mm 8 mps 760 mmHg 47%
    21:00 +13°C° 0 mm 8 mps 760 mmHg 49%
    22:00 +13°C° 0 mm 9 mps 760 mmHg 50%
    23:00 +13°C° 0 mm 9 mps 760 mmHg 51%

    21 January, Monday

    Time Temperature Precipitation Wind Pressure Humidity
    00:00 +13°C° 0 mm 9 mps 760 mmHg 51%
    01:00 +13°C° 0 mm 9 mps 760 mmHg 51%
    02:00 +13°C° 0 mm 9 mps 759 mmHg 51%
    03:00 +13°C° 0 mm 8 mps 759 mmHg 50%
    04:00 +13°C° 0 mm 8 mps 759 mmHg 50%
    05:00 +12°C° 0 mm 8 mps 759 mmHg 50%
    06:00 +12°C° 0 mm 7 mps 759 mmHg 51%
    07:00 +11°C° 0 mm 7 mps 759 mmHg 52%
    08:00 +12°C° 0 mm 7 mps 759 mmHg 56%
    09:00 +12°C° 0 mm 7 mps 759 mmHg 60%
    10:00 +12°C° 0 mm 7 mps 760 mmHg 64%
    11:00 +14°C° 0 mm 6 mps 760 mmHg 59%
    12:00 +15°C° 0 mm 6 mps 759 mmHg 54%
    13:00 +16°C° 0 mm 5 mps 759 mmHg 50%
    14:00 +18°C° 0 mm 4 mps 759 mmHg 48%
    15:00 +18°C° 0 mm 3 mps 759 mmHg 46%
    16:00 +18°C° 0 mm 3 mps 759 mmHg 44%
    17:00 +17°C° 0.2 mm 3 mps 760 mmHg 47%
    18:00 +17°C° 0.2 mm 3 mps 760 mmHg 50%
    19:00 +16°C° 0.2 mm 3 mps 761 mmHg 53%
    20:00 +16°C° 0.3 mm 3 mps 761 mmHg 53%
    21:00 +14°C° 0.3 mm 4 mps 762 mmHg 54%
    22:00 +13°C° 0.3 mm 4 mps 762 mmHg 54%
    23:00 +13°C° 0 mm 4 mps 762 mmHg 54%
    Show more